Camp Point, IL

2:09 PM CST on December 08, 2016 (GMT -0600)
Quincy Regional-Baldwin

Weather History for KUIN - August, 2013

Change the Weather History Date:

Thursday, August 22, 2013

  Actual Average Record
Temperature  
Mean Temperature 78 °F 74 °F  
Max Temperature 88 °F 84 °F 103 °F (1936)
Min Temperature 67 °F 64 °F 50 °F (1923)
Degree Days  
Heating Degree Days 0 0  
Month to date heating degree days 2 0  
Since 1 June heating degree days 18 16  
Since 1 July heating degree days 6 0  
Cooling Degree Days 13 9  
Month to date cooling degree days 166 222  
Year to date cooling degree days 847 878  
Since 1 June cooling degree days 735 792  
Growing Degree Days 26 (Base 50)    
Moisture  
Dew Point 68 °F    
Average Humidity 72    
Maximum Humidity 93    
Minimum Humidity 50    
Precipitation  
Precipitation 0.00 in 0.11 in 1.12 in (1905)
Month to date precipitation 0.01 2.59  
Year to date precipitation 28.10 24.71  
Sea Level Pressure  
Sea Level Pressure 30.05 in    
Wind  
Wind Speed 6 mph (SSE)    
Max Wind Speed 12 mph    
Max Gust Speed 16 mph    
Visibility 10 miles    
Events      
T = Trace of Precipitation, MM = Missing Value Source: NWS Daily Summary

Daily Weather History Graph

Daily Weather History Graph

Search for Another Location

Airport or City:

Trip Planner

Search our weather history database for the weather conditions in past years. The results will help you decide how hot, cold, wet, or windy it might be!

Date:

Astronomy

Aug. 22, 2013 Rise Set
Actual Time 6:23 AM CDT 7:51 PM CDT
Civil Twilight 5:54 AM CDT 8:19 PM CDT
Nautical Twilight 5:20 AM CDT 8:53 PM CDT
Astronomical Twilight 4:44 AM CDT 9:29 PM CDT
Moon 8:35 PM CDT (8/22) 8:12 AM CDT (8/22)
Length of Visible Light 14h 24m
Length of Day
13h 27m
Waning Gibbous, 96% of the Moon is Illuminated
Aug 22
Waning Gibbous
Aug 28
Last Quarter
Sep 5
New
Sep 12
First Quarter
Sep 19
Full

Hourly Weather History & Observations

Time (CDT) Temp. Heat Index Dew Point Humidity Pressure Visibility Wind Dir Wind Speed Gust Speed Precip Events Conditions
12:54 AM 71.1 °F - 64.9 °F 81% 30.04 in 10.0 mi SSW 4.6 mph - N/A   Clear
1:54 AM 69.1 °F - 64.9 °F 87% 30.04 in 10.0 mi SSW 5.8 mph - N/A   Clear
2:54 AM 70.0 °F - 64.9 °F 84% 30.04 in 10.0 mi South 6.9 mph - N/A   Clear
3:54 AM 70.0 °F - 64.9 °F 84% 30.04 in 10.0 mi South 5.8 mph - N/A   Clear
4:54 AM 69.1 °F - 64.9 °F 87% 30.02 in 10.0 mi SSW 5.8 mph - N/A   Clear
5:54 AM 66.9 °F - 64.0 °F 90% 30.04 in 9.0 mi SSW 4.6 mph - N/A   Clear
6:54 AM 69.1 °F - 64.9 °F 87% 30.05 in 7.0 mi SSW 5.8 mph - N/A   Clear
7:54 AM 71.1 °F - 66.0 °F 84% 30.06 in 7.0 mi SW 5.8 mph - N/A   Clear
8:54 AM 75.9 °F - 68.0 °F 76% 30.07 in 10.0 mi WSW 6.9 mph - N/A   Clear
9:54 AM 81.0 °F 83.8 °F 68.0 °F 65% 30.08 in 10.0 mi WNW 6.9 mph - N/A   Clear
10:54 AM 82.0 °F 84.9 °F 68.0 °F 62% 30.09 in 10.0 mi WNW 8.1 mph - N/A   Clear
11:54 AM 84.9 °F 88.8 °F 69.1 °F 59% 30.07 in 10.0 mi NW 8.1 mph - N/A   Clear
12:54 PM 86.0 °F 90.7 °F 70.0 °F 59% 30.06 in 10.0 mi North 6.9 mph - N/A   Clear
1:54 PM 87.1 °F 89.9 °F 66.9 °F 51% 30.05 in 10.0 mi NNE 3.5 mph - N/A   Clear
2:54 PM 84.0 °F 88.4 °F 70.0 °F 63% 30.04 in 10.0 mi ENE 8.1 mph - N/A   Partly Cloudy
3:54 PM 84.0 °F 89.0 °F 71.1 °F 65% 30.04 in 10.0 mi ENE 9.2 mph - N/A   Clear
4:54 PM 84.9 °F 90.1 °F 71.1 °F 63% 30.03 in 10.0 mi ESE 5.8 mph - N/A   Clear
5:54 PM 82.9 °F 87.5 °F 71.1 °F 67% 30.02 in 10.0 mi SE 3.5 mph - N/A   Clear
6:54 PM 82.0 °F 86.7 °F 72.0 °F 71% 30.01 in 10.0 mi ESE 3.5 mph - N/A   Clear
7:54 PM 79.0 °F - 73.0 °F 82% 30.03 in 8.0 mi NNE 3.5 mph - N/A   Clear
8:54 PM 78.1 °F - 72.0 °F 81% 30.04 in 8.0 mi East 5.8 mph - N/A   Clear
9:54 PM 75.9 °F - 71.1 °F 85% 30.05 in 8.0 mi East 4.6 mph - N/A   Partly Cloudy
10:54 PM 75.9 °F - 70.0 °F 82% 30.05 in 10.0 mi East 4.6 mph - N/A   Overcast
11:54 PM 73.9 °F - 69.1 °F 85% 30.06 in 10.0 mi ESE 3.5 mph - N/A   Mostly Cloudy